KINEIS-1A

Last updated on Sat Sep 05 2026 00:02:54 GMT+0000 (Coordinated Universal Time)

1 60084U 24114F 26247.67533434 .00000309 00000+0 46905-4 0 9995 2 60084 97.8913 269.9229 0002843 228.3879 131.7089 14.80722401119157
UTC large
Height (km)
Speed (km/s)
/
Latitude / Longitude
Inclination (degrees)
Orbital Period (minutes)
Azimuth
Elevation
Range (km)
Doppler Factor

Next 0 passes for location: London (51.5072 / 0.1276)

No passes found over London.
KINEIS-1A